Radiation Dose at Monitoring Post of Fukushima Daini Nuclear Power Station
Date,Time,MP-1(microSv/h),MP-2(microSv/h),MP-3(microSv/h),MP-4(microSv/h),MP-5(microSv/h),MP-6(microSv/h),MP-7(microSv/h),Wind Direction,Wind Velocity(m/s),Rain
2021/04/03,00:00,0.172,0.153,0.251,0.238,0.235,0.134,0.083,south,5.3,No
2021/04/03,00:10,0.171,0.153,0.251,0.239,0.237,0.134,0.084,south,5.8,No
2021/04/03,00:20,0.172,0.152,0.253,0.239,0.236,0.133,0.083,south,5.4,No
2021/04/03,00:30,0.171,0.152,0.251,0.238,0.237,0.134,0.083,south,5.7,No
2021/04/03,00:40,0.171,0.152,0.251,0.239,0.235,0.133,0.083,south,5.5,No
2021/04/03,00:50,0.171,0.153,0.252,0.238,0.236,0.134,0.083,south,5.0,No
2021/04/03,01:00,0.171,0.152,0.251,0.238,0.237,0.134,0.083,south,4.9,No
2021/04/03,01:10,0.172,0.153,0.251,0.238,0.235,0.134,0.082,south,5.0,No
2021/04/03,01:20,0.172,0.154,0.253,0.238,0.238,0.133,0.082,south,4.9,No
2021/04/03,01:30,0.171,0.153,0.252,0.238,0.237,0.134,0.082,south,4.9,No
2021/04/03,01:40,0.171,0.153,0.252,0.240,0.237,0.135,0.083,south,5.7,No
2021/04/03,01:50,0.171,0.153,0.253,0.237,0.237,0.133,0.082,south,5.9,No
2021/04/03,02:00,0.170,0.153,0.252,0.238,0.236,0.134,0.083,south,6.3,No
2021/04/03,02:10,0.171,0.154,0.251,0.238,0.237,0.134,0.082,south,6.2,No
2021/04/03,02:20,0.170,0.153,0.252,0.238,0.237,0.133,0.083,south,7.2,No
2021/04/03,02:30,0.171,0.153,0.252,0.238,0.235,0.134,0.084,south,6.8,No
2021/04/03,02:40,0.171,0.154,0.252,0.238,0.238,0.134,0.083,south,6.6,No
2021/04/03,02:50,0.171,0.153,0.251,0.239,0.235,0.134,0.083,south,6.0,No
2021/04/03,03:00,0.171,0.152,0.253,0.239,0.236,0.135,0.083,south-southwest,6.1,No
2021/04/03,03:10,0.171,0.153,0.252,0.239,0.238,0.134,0.083,south,5.6,No
2021/04/03,03:20,0.172,0.153,0.251,0.239,0.236,0.134,0.083,south,5.2,No
2021/04/03,03:30,0.172,0.153,0.252,0.237,0.237,0.134,0.083,south,5.4,No
2021/04/03,03:40,0.172,0.154,0.252,0.239,0.236,0.134,0.082,south,5.2,No
2021/04/03,03:50,0.172,0.154,0.251,0.237,0.235,0.135,0.083,south,5.1,No
2021/04/03,04:00,0.172,0.153,0.252,0.238,0.238,0.134,0.082,south-southwest,5.3,No
2021/04/03,04:10,0.171,0.153,0.251,0.237,0.234,0.134,0.083,south-southwest,5.8,No
2021/04/03,04:20,0.172,0.152,0.251,0.239,0.236,0.135,0.084,south,5.4,No
2021/04/03,04:30,0.171,0.153,0.251,0.239,0.234,0.134,0.083,south,5.0,No
2021/04/03,04:40,0.171,0.154,0.251,0.238,0.236,0.134,0.082,south,5.6,No
2021/04/03,04:50,0.171,0.153,0.252,0.238,0.236,0.133,0.083,south,4.9,No
2021/04/03,05:00,0.171,0.152,0.253,0.238,0.235,0.134,0.083,south,4.7,No
2021/04/03,05:10,0.171,0.152,0.252,0.237,0.237,0.134,0.083,south-southwest,4.4,No
2021/04/03,05:20,0.172,0.153,0.250,0.238,0.235,0.132,0.083,south,4.6,No
2021/04/03,05:30,0.171,0.152,0.252,0.238,0.236,0.134,0.083,south,4.9,No
2021/04/03,05:40,0.172,0.153,0.251,0.238,0.235,0.134,0.082,south,5.0,No
2021/04/03,05:50,0.170,0.152,0.251,0.238,0.235,0.134,0.083,south-southwest,4.7,No
2021/04/03,06:00,0.172,0.153,0.252,0.238,0.236,0.134,0.083,south-southwest,3.9,No
2021/04/03,06:10,0.172,0.152,0.250,0.238,0.236,0.134,0.083,south-southwest,4.4,No
2021/04/03,06:20,0.171,0.152,0.251,0.238,0.236,0.135,0.082,south-southwest,4.2,No
2021/04/03,06:30,0.172,0.153,0.251,0.238,0.235,0.133,0.083,south-southwest,3.9,No
2021/04/03,06:40,0.171,0.152,0.250,0.238,0.236,0.133,0.083,south-southwest,4.2,No
2021/04/03,06:50,0.172,0.153,0.251,0.238,0.235,0.134,0.083,south-southwest,3.7,No
2021/04/03,07:00,0.172,0.153,0.250,0.237,0.237,0.133,0.083,south-southwest,4.0,No
2021/04/03,07:10,0.171,0.153,0.253,0.238,0.234,0.133,0.083,south-southwest,4.1,No
2021/04/03,07:20,0.172,0.152,0.251,0.238,0.236,0.134,0.084,south-southwest,4.8,No
2021/04/03,07:30,0.171,0.152,0.250,0.238,0.233,0.133,0.083,south,4.2,No
2021/04/03,07:40,0.171,0.153,0.251,0.237,0.236,0.133,0.083,south,4.0,No
2021/04/03,07:50,0.171,0.152,0.250,0.239,0.235,0.134,0.083,south,4.0,No
2021/04/03,08:00,0.171,0.152,0.252,0.237,0.236,0.134,0.083,south,4.9,No
2021/04/03,08:10,0.171,0.152,0.250,0.239,0.235,0.134,0.083,south,3.4,No
2021/04/03,08:20,0.172,0.152,0.252,0.236,0.236,0.134,0.083,south,3.2,No
2021/04/03,08:30,0.172,0.153,0.249,0.237,0.235,0.133,0.083,south,3.9,No
2021/04/03,08:40,0.171,0.153,0.251,0.236,0.236,0.134,0.083,south,5.1,No
2021/04/03,08:50,0.172,0.152,0.249,0.239,0.234,0.134,0.082,south,5.6,No
2021/04/03,09:00,0.169,0.153,0.249,0.236,0.237,0.134,0.082,south-southeast,6.4,No
2021/04/03,09:10,0.170,0.151,0.251,0.236,0.234,0.134,0.083,south-southeast,4.6,No
2021/04/03,09:20,0.170,0.154,0.250,0.237,0.234,0.134,0.082,south-southeast,6.2,No
2021/04/03,09:30,0.169,0.152,0.248,0.236,0.236,0.133,0.083,south-southeast,6.4,No
2021/04/03,09:40,0.170,0.151,0.252,0.237,0.234,0.133,0.082,south-southeast,6.5,No
2021/04/03,09:50,0.171,0.154,0.251,0.239,0.233,0.133,0.082,south-southeast,6.7,No
2021/04/03,10:00,0.170,0.152,0.249,0.237,0.237,0.134,0.082,southeast,7.7,No
2021/04/03,10:10,0.168,0.153,0.251,0.236,0.234,0.134,0.083,south-southeast,7.4,No
2021/04/03,10:20,0.171,0.153,0.252,0.239,0.234,0.134,0.082,south-southeast,8.3,No
2021/04/03,10:30,0.171,0.151,0.251,0.237,0.237,0.133,0.083,south-southeast,7.6,No
2021/04/03,10:40,0.170,0.153,0.249,0.237,0.234,0.134,0.083,south-southeast,7.2,No
2021/04/03,10:50,0.170,0.152,0.253,0.239,0.235,0.134,0.082,south-southeast,7.3,No
2021/04/03,11:00,0.172,0.152,0.251,0.237,0.236,0.133,0.082,south-southeast,7.4,No
2021/04/03,11:10,0.171,0.153,0.249,0.237,0.234,0.134,0.083,south-southeast,7.1,No
2021/04/03,11:20,0.170,0.152,0.252,0.240,0.235,0.133,0.082,south-southeast,8.6,No
2021/04/03,11:30,0.169,0.153,0.253,0.237,0.237,0.133,0.083,south-southeast,9.2,No
2021/04/03,11:40,0.170,0.153,0.251,0.237,0.234,0.134,0.083,south-southeast,8.1,No
2021/04/03,11:50,0.172,0.151,0.251,0.241,0.234,0.133,0.082,south-southeast,8.3,No
2021/04/03,12:00,0.170,0.152,0.254,0.238,0.237,0.133,0.082,south-southeast,9.8,No
2021/04/03,12:10,0.169,0.153,0.252,0.236,0.237,0.135,0.083,south-southeast,10.3,No
2021/04/03,12:20,0.169,0.152,0.250,0.240,0.234,0.133,0.082,south-southeast,10.7,No
2021/04/03,12:30,0.172,0.153,0.252,0.237,0.236,0.133,0.082,south-southeast,9.3,No
2021/04/03,12:40,0.171,0.153,0.252,0.237,0.237,0.134,0.083,south-southeast,11.2,No
2021/04/03,12:50,0.170,0.152,0.250,0.239,0.235,0.133,0.081,south-southeast,10.7,No
2021/04/03,13:00,0.170,0.153,0.251,0.238,0.235,0.134,0.082,south-southeast,11.2,No
2021/04/03,13:10,0.171,0.153,0.253,0.236,0.237,0.134,0.083,south-southeast,9.8,No
2021/04/03,13:20,0.172,0.152,0.251,0.239,0.236,0.134,0.082,southeast,10.7,No
2021/04/03,13:30,0.172,0.154,0.250,0.239,0.233,0.133,0.083,south-southeast,9.2,No
2021/04/03,13:40,0.170,0.152,0.254,0.237,0.237,0.134,0.082,south-southeast,9.5,No
2021/04/03,13:50,0.169,0.152,0.251,0.239,0.234,0.133,0.082,south-southeast,8.3,No
2021/04/03,14:00,0.172,0.153,0.250,0.238,0.234,0.133,0.083,south-southeast,9.8,No
2021/04/03,14:10,0.171,0.153,0.252,0.237,0.237,0.134,0.082,south-southeast,9.5,No
2021/04/03,14:20,0.170,0.153,0.253,0.239,0.236,0.135,0.082,south-southeast,9.5,No
2021/04/03,14:30,0.169,0.154,0.251,0.238,0.234,0.133,0.082,south,9.2,No
2021/04/03,14:40,0.171,0.152,0.252,0.238,0.236,0.134,0.082,south-southeast,9.3,No
2021/04/03,14:50,0.172,0.153,0.252,0.239,0.236,0.134,0.082,south-southeast,10.4,No
2021/04/03,15:00,0.171,0.153,0.251,0.237,0.235,0.134,0.082,south-southeast,10.4,No
2021/04/03,15:10,0.170,0.153,0.253,0.240,0.234,0.136,0.082,south-southeast,10.3,No
2021/04/03,15:20,0.173,0.154,0.252,0.239,0.237,0.134,0.083,south-southeast,10.1,No
2021/04/03,15:30,0.171,0.152,0.253,0.241,0.235,0.134,0.082,south-southeast,9.8,No
2021/04/03,15:40,0.171,0.153,0.253,0.240,0.234,0.134,0.083,south-southeast,11.8,No
2021/04/03,15:50,0.173,0.152,0.254,0.241,0.236,0.133,0.083,south-southeast,9.8,No
2021/04/03,16:00,0.171,0.154,0.253,0.240,0.235,0.134,0.084,south-southeast,8.3,No
2021/04/03,16:10,0.169,0.154,0.253,0.240,0.236,0.135,0.083,south-southeast,7.7,No
2021/04/03,16:20,0.172,0.154,0.253,0.239,0.238,0.133,0.083,south,8.5,No
2021/04/03,16:30,0.171,0.154,0.254,0.240,0.234,0.135,0.082,south,11.1,No
2021/04/03,16:40,0.172,0.153,0.251,0.238,0.240,0.134,0.083,south-southeast,10.0,No
2021/04/03,16:50,0.171,0.153,0.254,0.240,0.237,0.134,0.083,south-southeast,10.6,No
2021/04/03,17:00,0.171,0.154,0.251,0.238,0.236,0.134,0.082,south,10.4,No
2021/04/03,17:10,0.171,0.153,0.254,0.240,0.238,0.134,0.083,south,9.3,No
2021/04/03,17:20,0.172,0.153,0.253,0.238,0.236,0.134,0.083,south,8.2,No
2021/04/03,17:30,0.171,0.153,0.251,0.239,0.238,0.135,0.083,south,8.3,No
2021/04/03,17:40,0.172,0.153,0.253,0.240,0.235,0.134,0.082,south,8.4,No
2021/04/03,17:50,0.170,0.153,0.253,0.239,0.238,0.134,0.083,south,7.5,No
2021/04/03,18:00,0.172,0.153,0.254,0.238,0.237,0.135,0.083,south,9.8,No
2021/04/03,18:10,0.171,0.154,0.253,0.238,0.237,0.134,0.082,south,8.2,No
2021/04/03,18:20,0.173,0.153,0.253,0.240,0.237,0.134,0.083,south,7.5,No
2021/04/03,18:30,0.171,0.153,0.252,0.239,0.236,0.134,0.083,south,7.0,No
2021/04/03,18:40,0.172,0.154,0.252,0.240,0.238,0.133,0.082,south,7.0,No
2021/04/03,18:50,0.172,0.152,0.252,0.239,0.236,0.135,0.082,south,7.1,No
2021/04/03,19:00,0.172,0.153,0.252,0.240,0.238,0.134,0.082,south,6.2,No
2021/04/03,19:10,0.172,0.154,0.252,0.240,0.236,0.135,0.083,south,6.3,No
2021/04/03,19:20,0.172,0.153,0.254,0.239,0.238,0.134,0.083,south,6.1,No
2021/04/03,19:30,0.172,0.154,0.252,0.240,0.235,0.134,0.083,south,6.3,No
2021/04/03,19:40,0.171,0.154,0.254,0.239,0.237,0.136,0.082,south,5.9,No
2021/04/03,19:50,0.172,0.152,0.253,0.240,0.235,0.134,0.083,south,6.2,No
2021/04/03,20:00,0.171,0.155,0.254,0.240,0.237,0.134,0.083,south,5.8,No
2021/04/03,20:10,0.172,0.153,0.253,0.239,0.236,0.134,0.083,south,6.1,No
2021/04/03,20:20,0.170,0.154,0.252,0.240,0.235,0.134,0.082,south,6.4,No
2021/04/03,20:30,0.172,0.153,0.253,0.238,0.237,0.134,0.083,south,6.0,No
2021/04/03,20:40,0.171,0.154,0.253,0.240,0.236,0.134,0.083,south,6.6,No
2021/04/03,20:50,0.171,0.153,0.252,0.239,0.238,0.133,0.083,south-southwest,6.1,No
2021/04/03,21:00,0.171,0.153,0.255,0.241,0.237,0.134,0.082,south,6.4,No
2021/04/03,21:10,0.171,0.153,0.253,0.240,0.238,0.134,0.083,south,5.4,No
2021/04/03,21:20,0.173,0.154,0.253,0.239,0.237,0.134,0.083,south-southwest,6.3,No
2021/04/03,21:30,0.171,0.153,0.253,0.240,0.237,0.134,0.082,south,5.8,No
2021/04/03,21:40,0.172,0.153,0.252,0.239,0.235,0.134,0.083,south,5.7,No
2021/04/03,21:50,0.171,0.154,0.253,0.239,0.236,0.134,0.082,south,6.4,No
2021/04/03,22:00,0.173,0.153,0.252,0.239,0.236,0.134,0.083,south,6.4,No
2021/04/03,22:10,0.173,0.153,0.253,0.238,0.235,0.134,0.083,south,6.3,No
2021/04/03,22:20,0.171,0.154,0.252,0.240,0.237,0.135,0.083,south,7.0,No
2021/04/03,22:30,0.172,0.153,0.252,0.238,0.235,0.135,0.083,south,7.3,No
2021/04/03,22:40,0.172,0.154,0.253,0.238,0.238,0.134,0.083,south,7.7,No
2021/04/03,22:50,0.172,0.153,0.254,0.240,0.236,0.135,0.083,south,6.8,No
2021/04/03,23:00,0.171,0.152,0.252,0.239,0.237,0.133,0.082,south,6.4,No
2021/04/03,23:10,0.173,0.154,0.252,0.239,0.237,0.135,0.083,south,7.3,No
2021/04/03,23:20,0.172,0.153,0.253,0.240,0.236,0.134,0.083,south-southwest,7.4,No
2021/04/03,23:30,0.172,0.153,0.252,0.240,0.238,0.134,0.083,south,7.0,No
2021/04/03,23:40,0.172,0.154,0.253,0.240,0.236,0.134,0.083,south-southwest,7.8,No
2021/04/03,23:50,0.171,0.153,0.253,0.239,0.237,0.134,0.083,south,7.2,No
